Wind_Speed
44 44 47 47 46 47 50 46 42 42 48 46 44 48 51 55 59 57 58 65 66 64 63 60 56 55 54 56 54 52 50 51 51 53 54 53 56 60 61 58 55 54 54 52
49 50 52 52 52 49 47 40 45 40 41 43 39 37 44 53 51 58 61 68 68 69 71 70 67 63 62 64 63 59 59 58 59 59 62 59 53 53 56 60 63 58 52 53
45 44 48 47 47 50 50 52 45 44 50 45 46 47 53 64 57 51 56 67 73 76 74 77 76 73 72 70 70 69 67 68 67 65 67 67 67 61 56 57 58 61 61 60
47 50 51 52 51 50 51 57 58 61 58 57 59 55 62 68 63 68 69 64 71 74 75 74 73 77 80 80 79 79 78 77 75 73 73 72 70 72 72 70 68 67 68 70
57 50 55 62 64 60 61 63 65 68 65 65 72 75 64 71 76 83 85 78 72 73 79 80 82 81 81 82 81 84 86 87 86 86 82 82 82 82 83 83 81 80 80 75
59 59 59 59 68 71 73 75 76 80 77 73 78 86 78 86 91 90 86 84 78 81 81 82 83 86 86 87 87 87 81 83 84 85 87 89 89 87 87 86 88 85 85 89
69 71 70 73 74 77 79 77 84 90 87 87 94 93 92 96 95 91 89 85 83 80 89 86 88 88 91 92 91 94 95 93 93 93 94 93 91 92 94 95 93 91 89 91
74 75 79 78 76 77 81 83 90 97 95 93 101 104 100 99 98 95 91 90 84 89 93 94 98 98 98 100 102 102 103 106 105 105 104 104 103 102 100 102 103 102 103 104
79 82 86 90 91 91 90 94 101 104 102 104 102 106 101 102 101 97 91 90 90 92 100 108 105 106 109 107 109 111 107 110 113 115 119 114 113 113 114 111 109 116 112 109
86 86 89 97 97 104 100 99 103 106 108 110 111 106 102 99 99 100 97 97 104 106 104 106 105 109 112 114 117 120 119 118 117 116 118 121 124 122 123 122 121 122 123 125
100 99 98 99 103 111 104 103 112 114 113 118 115 106 103 105 107 110 109 108 108 106 114 115 112 111 114 117 118 117 122 125 125 127 127 127 127 129 128 127 128 125 130 131
105 107 105 109 115 113 108 111 121 123 119 118 119 114 108 112 116 119 117 113 110 109 108 107 109 113 118 121 120 119 121 126 127 128 131 135 140 135 141 142 141 140 134 132
113 115 116 116 117 117 119 118 122 127 127 121 121 117 114 121 127 129 122 115 111 111 110 109 109 109 111 115 117 121 125 128 129 127 124 127 129 138 143 143 148 151 149 150
117 119 123 124 121 122 119 121 126 125 127 125 127 126 124 131 137 127 124 120 118 116 112 110 110 109 107 109 111 115 117 118 119 121 121 123 125 128 129 133 137 142 144 150
123 127 135 130 128 129 129 129 125 130 133 139 134 139 136 134 128 126 122 118 117 114 110 108 107 109 109 106 107 109 111 114 116 116 118 119 119 121 123 124 125 128 133 135
131 138 135 132 135 138 137 129 133 137 135 141 142 134 133 129 125 120 115 114 111 109 108 107 106 107 106 107 109 109 109 108 108 110 112 114 116 119 122 124 126 128 129 128
145 141 139 138 139 141 140 136 141 139 135 134 131 129 127 123 117 111 109 107 106 106 106 105 101 98 96 97 98 101 102 101 100 101 103 106 107 109 112 114 116 118 120 122
140 140 147 145 144 147 141 135 133 131 127 122 122 119 112 108 106 105 104 102 101 100 100 100 99 98 98 99 99 100 100 100 100 99 98 100 101 102 103 105 107 109 111 113
145 147 152 152 146 139 128 129 124 120 112 109 111 105 100 97 94 97 98 95 95 96 96 97 99 100 96 93 90 89 88 89 90 92 92 93 93 93 94 95 97 100 100 100
148 153 147 139 138 128 119 114 112 113 104 105 101 100 99 95 93 93 99 98 97 95 93 94 96 95 95 93 91 89 89 90 90 90 91 92 92 92 92 93 96 95 94 93
147 141 137 134 128 116 110 110 108 107 100 94 94 94 95 95 96 93 94 96 96 94 95 94 94 94 92 91 89 87 87 86 87 88 89 89 90 90 92 93 93 94 94 95
140 132 120 115 111 109 109 107 106 103 97 95 93 94 95 94 94 94 92 92 93 94 93 92 91 90 89 88 86 86 86 86 85 84 84 83 84 88 87 87 89 90 93 94
122 112 113 108 109 107 108 108 105 102 98 94 92 89 91 91 94 95 94 91 87 86 85 86 88 88 86 84 84 83 82 82 83 84 83 83 84 83 83 82 83 84 85 86
109 106 105 107 106 106 110 106 104 101 96 93 92 91 92 92 91 90 88 85 82 82 82 81 81 81 80 79 79 80 81 83 84 84 83 84 82 82 81 81 81 81 81 82
102 104 103 105 104 110 106 103 101 99 99 97 95 96 94 92 90 88 84 83 82 80 78 78 79 80 80 79 79 79 79 79 80 79 80 79 78 76 77 78 77 76 76 76
102 102 105 104 105 107 101 93 95 97 97 98 96 94 93 92 90 90 88 86 83 82 80 78 77 76 74 75 76 74 75 76 76 77 78 78 76 76 76 74 75 75 72 73
Wind_Direction
278 278 277 277 279 281 281 279 279 287 282 276 278 275 273 274 274 276 276 278 280 278 272 267 266 266 264 268 268 266 264 267 269 269 270 268 269 265 268 268 268 266 265 263
279 280 277 277 278 283 281 281 278 275 279 276 274 292 289 276 283 275 273 269 269 274 275 273 270 267 262 265 267 263 263 264 266 266 266 264 264 268 265 265 266 264 260 261
280 288 286 283 281 283 275 276 277 276 269 268 264 271 290 289 282 284 281 272 269 269 270 267 267 269 267 263 262 262 261 261 262 262 263 263 262 260 259 261 258 256 256 258
284 293 291 287 286 292 292 294 295 295 290 283 290 275 288 291 287 287 287 285 272 264 265 267 269 268 266 264 263 261 260 260 261 262 263 259 258 259 260 261 258 254 252 255
292 292 292 296 299 291 293 291 294 292 294 297 298 291 291 290 294 292 291 285 267 266 266 267 265 265 265 265 265 264 263 261 261 261 262 261 261 261 259 259 261 260 258 255
295 295 294 295 296 296 297 294 293 296 297 300 299 296 299 297 294 290 285 282 277 260 262 262 262 262 262 261 261 259 258 261 262 262 262 259 259 259 259 259 260 258 259 257
294 293 293 294 291 289 288 293 291 294 296 300 298 300 301 299 296 289 287 282 275 274 264 259 260 260 259 259 259 258 256 254 255 260 262 262 261 260 259 257 257 257 255 256
292 295 299 298 294 290 292 297 300 297 295 295 296 301 304 298 295 289 286 282 275 270 269 269 259 259 260 257 258 259 256 255 255 255 257 258 258 259 260 262 262 259 257 255
293 292 295 301 302 303 295 294 298 300 297 296 301 300 301 297 295 294 290 283 278 274 268 270 271 261 259 261 258 258 258 254 255 255 256 256 255 256 257 260 260 259 258 258
301 301 298 300 298 298 293 295 302 299 294 295 298 296 297 294 294 294 291 284 283 279 274 272 272 267 265 262 260 258 256 255 255 255 253 256 254 255 255 257 259 257 258 257
301 304 304 304 299 298 294 291 296 299 297 296 297 298 299 297 293 293 291 287 282 277 272 275 273 269 267 265 265 262 261 258 256 254 254 255 255 254 254 257 256 259 256 256
299 299 301 300 300 298 295 292 296 298 298 297 298 299 296 295 294 294 294 290 285 281 279 277 274 272 271 270 268 265 264 264 262 260 259 258 257 257 256 255 259 262 259 258
298 300 300 301 299 297 295 295 296 297 299 298 296 298 293 294 295 292 289 287 284 281 280 277 275 274 272 272 271 270 270 270 270 268 266 264 262 261 260 260 260 260 260 263
294 296 297 298 297 296 294 293 296 297 297 295 296 293 294 292 291 291 290 289 286 284 282 281 280 278 275 272 271 271 270 270 269 269 269 269 268 265 265 262 262 262 263 261
294 294 295 296 295 296 296 298 299 297 294 292 294 291 292 289 289 289 288 287 286 284 283 281 279 278 278 276 274 272 270 269 269 269 268 268 267 267 265 264 264 262 263 263
291 293 293 295 294 295 296 298 295 292 292 291 290 291 290 288 287 287 286 286 287 285 282 281 280 279 279 279 277 276 274 273 271 270 269 268 267 267 267 267 267 266 266 265
291 293 292 293 293 292 294 293 292 291 289 289 288 288 288 289 288 289 290 288 287 287 286 285 284 282 280 278 277 277 277 276 274 273 272 271 270 269 268 267 267 268 267 268
292 292 292 292 291 292 292 291 289 288 287 288 287 287 287 290 289 289 288 287 286 285 284 284 284 282 280 279 279 279 279 279 279 277 275 274 273 272 271 270 269 268 267 267
288 291 293 293 292 292 292 291 290 289 286 287 286 288 288 287 287 287 285 285 285 285 286 286 285 284 284 284 283 282 281 280 278 278 277 276 275 274 272 271 270 269 267 267
289 290 291 292 290 290 291 292 289 288 289 287 290 290 290 291 290 288 289 290 289 288 287 286 286 287 287 287 286 285 283 281 281 280 278 277 277 276 275 273 270 271 270 268
289 289 289 290 289 292 294 290 289 288 289 290 290 290 290 290 290 289 288 289 289 290 289 288 287 286 285 285 284 283 282 280 279 279 279 278 277 275 272 272 273 272 271 270
289 289 288 288 290 289 288 287 286 287 289 289 289 290 290 290 289 288 288 287 288 288 288 288 287 287 286 285 284 283 283 282 281 280 279 278 277 275 275 274 274 273 272 272
286 287 287 288 286 287 286 286 287 288 289 291 290 289 287 287 287 287 288 288 288 288 287 287 286 286 286 286 285 284 284 282 281 281 281 280 279 279 278 277 276 274 274 273
285 285 285 285 285 287 284 287 289 291 292 292 290 290 289 288 289 289 289 289 288 287 286 286 287 287 286 285 284 284 283 283 283 283 283 282 282 281 281 280 278 277 276 275
285 283 283 284 285 283 285 288 291 293 292 293 292 292 292 292 292 292 290 289 288 288 288 288 287 286 286 286 285 284 284 283 284 283 283 283 283 283 282 282 281 280 279 277
283 284 283 282 282 284 286 289 289 289 290 290 292 293 293 293 293 292 293 292 291 291 290 289 287 287 287 285 284 284 283 283 282 283 283 283 283 283 283 283 283 281 279 279
Height
10741 10740 10736 10735 10737 10736 10736 10736 10736 10733 10733 10737 10737 10737 10735 10731 10725 10729 10726 10717 10712 10713 10714 10714 10715 10714 10712 10710 10709 10709 10708 10706 10704 10703 10702 10701 10702 10701 10700 10698 10698 10698 10700 10701
10728 10728 10724 10724 10723 10725 10724 10724 10721 10723 10719 10722 10722 10724 10719 10712 10716 10714 10715 10706 10702 10700 10698 10697 10698 10699 10699 10697 10695 10694 10693 10693 10691 10689 10688 10687 10686 10684 10684 10685 10684 10683 10682 10683
10718 10717 10712 10713 10713 10710 10708 10707 10705 10708 10705 10706 10707 10712 10706 10692 10701 10697 10693 10691 10687 10683 10681 10680 10678 10679 10680 10680 10679 10678 10676 10675 10674 10673 10672 10672 10671 10669 10668 10667 10667 10667 10666 10666
10706 10703 10698 10696 10699 10695 10695 10689 10689 10686 10687 10688 10688 10695 10692 10680 10682 10676 10672 10670 10667 10664 10662 10659 10658 10658 10657 10658 10658 10657 10657 10656 10654 10654 10653 10652 10652 10650 10650 10650 10650 10649 10648 10648
10686 10690 10684 10679 10677 10678 10677 10674 10669 10666 10668 10672 10669 10663 10679 10666 10661 10653 10650 10647 10644 10641 10638 10639 10637 10635 10633 10633 10634 10634 10633 10633 10632 10631 10631 10630 10628 10629 10629 10628 10628 10628 10628 10629
10672 10673 10670 10667 10662 10658 10655 10652 10648 10644 10645 10649 10645 10636 10662 10643 10637 10631 10625 10622 10616 10613 10611 10613 10613 10611 10609 10610 10609 10609 10608 10605 10605 10605 10605 10605 10604 10603 10603 10603 10604 10605 10605 10606
10656 10654 10652 10650 10646 10640 10634 10633 10626 10620 10621 10620 10620 10616 10623 10617 10606 10601 10594 10593 10591 10588 10586 10585 10584 10582 10581 10582 10581 10581 10580 10579 10578 10579 10578 10576 10574 10575 10576 10576 10576 10576 10577 10579
10634 10635 10630 10630 10624 10620 10614 10607 10601 10589 10595 10599 10596 10591 10596 10586 10577 10569 10566 10564 10563 10559 10557 10554 10550 10551 10550 10548 10547 10548 10546 10546 10548 10547 10547 10546 10546 10545 10544 10543 10544 10546 10546 10547
10616 10613 10610 10602 10597 10591 10589 10583 10579 10567 10562 10562 10575 10569 10564 10553 10543 10540 10536 10534 10530 10529 10524 10519 10518 10515 10513 10510 10511 10511 10512 10512 10511 10512 10513 10512 10511 10511 10510 10511 10513 10513 10513 10513
10591 10586 10588 10583 10575 10565 10558 10556 10550 10544 10533 10534 10546 10548 10542 10529 10520 10511 10508 10507 10502 10496 10493 10490 10486 10482 10477 10475 10472 10470 10468 10472 10474 10474 10473 10474 10473 10473 10474 10475 10476 10477 10477 10480
10563 10562 10564 10562 10552 10540 10533 10531 10526 10518 10512 10502 10502 10516 10515 10499 10490 10484 10478 10473 10468 10463 10460 10456 10452 10448 10443 10437 10435 10434 10431 10431 10431 10430 10433 10433 10433 10433 10432 10433 10434 10434 10436 10439
10538 10535 10546 10540 10524 10515 10508 10506 10496 10485 10484 10477 10467 10473 10482 10465 10455 10447 10442 10439 10434 10427 10423 10421 10416 10413 10409 10403 10398 10397 10395 10392 10393 10393 10394 10395 10392 10393 10392 10393 10391 10392 10393 10395
10517 10509 10510 10516 10502 10489 10478 10478 10469 10456 10446 10446 10434 10442 10439 10430 10419 10411 10407 10406 10399 10390 10387 10382 10378 10375 10371 10365 10360 10359 10355 10351 10348 10347 10349 10351 10354 10353 10351 10349 10347 10348 10349 10347
10487 10485 10480 10482 10474 10465 10458 10457 10448 10430 10417 10406 10406 10397 10409 10394 10374 10374 10370 10364 10353 10349 10349 10345 10337 10335 10334 10330 10324 10317 10313 10312 10310 10306 10305 10303 10305 10305 10304 10303 10301 10302 10299 10301
10455 10451 10445 10446 10440 10430 10426 10427 10426 10401 10388 10366 10379 10361 10369 10355 10351 10340 10330 10325 10316 10311 10312 10309 10304 10294 10288 10288 10284 10279 10277 10273 10270 10269 10266 10264 10263 10259 10257 10254 10254 10254 10255 10255
10432 10421 10413 10412 10402 10392 10392 10403 10390 10373 10364 10346 10331 10327 10321 10318 10312 10306 10299 10290 10285 10279 10274 10269 10266 10261 10257 10252 10241 10238 10238 10236 10235 10231 10227 10224 10222 10220 10215 10213 10213 10213 10212 10214
10398 10389 10378 10382 10371 10360 10365 10368 10350 10337 10327 10313 10303 10293 10283 10280 10277 10272 10262 10256 10248 10241 10231 10226 10227 10227 10225 10219 10211 10202 10198 10196 10198 10196 10191 10186 10184 10181 10176 10174 10174 10173 10173 10174
10365 10355 10345 10345 10337 10328 10342 10330 10312 10303 10297 10287 10269 10261 10257 10255 10246 10237 10229 10225 10216 10210 10203 10195 10192 10189 10188 10184 10181 10175 10170 10166 10161 10159 10157 10150 10148 10145 10143 10143 10139 10137 10137 10135
10335 10322 10307 10302 10296 10284 10297 10280 10270 10261 10264 10258 10238 10235 10232 10227 10223 10210 10199 10196 10189 10184 10178 10169 10156 10149 10151 10153 10151 10148 10143 10138 10132 10124 10121 10116 10114 10113 10111 10110 10105 10099 10102 10102
10304 10293 10279 10273 10255 10251 10255 10250 10237 10220 10229 10214 10214 10204 10197 10195 10192 10186 10166 10163 10157 10153 10151 10139 10131 10124 10120 10117 10115 10113 10108 10103 10100 10095 10089 10084 10083 10082 10079 10073 10067 10068 10070 10071
10275 10260 10251 10239 10217 10219 10220 10204 10197 10189 10196 10200 10189 10180 10171 10166 10161 10160 10149 10136 10127 10123 10115 10111 10104 10098 10093 10089 10085 10081 10075 10072 10068 10064 10059 10055 10052 10049 10043 10041 10040 10038 10036 10033
10235 10226 10225 10210 10205 10194 10184 10176 10168 10165 10173 10171 10169 10156 10143 10139 10132 10123 10121 10115 10107 10096 10088 10081 10075 10069 10064 10059 10054 10048 10044 10041 10036 10032 10030 10027 10023 10015 10016 10015 10011 10008 10003 10003
10197 10202 10189 10190 10171 10166 10153 10144 10143 10142 10143 10142 10138 10131 10118 10113 10105 10097 10091 10087 10082 10074 10065 10057 10049 10041 10038 10034 10027 10021 10017 10012 10006 10002 10000 9998 9992 9990 9988 9987 9983 9979 9977 9975
10182 10176 10166 10152 10147 10139 10118 10119 10115 10111 10110 10110 10103 10096 10087 10081 10077 10071 10063 10058 10053 10048 10041 10034 10025 10016 10010 10005 10001 9997 9991 9984 9980 9976 9972 9966 9966 9963 9960 9956 9953 9951 9948 9944
10160 10145 10137 10127 10121 10100 10103 10100 10093 10087 10076 10073 10067 10059 10055 10050 10046 10038 10035 10029 10024 10020 10015 10009 10001 9991 9984 9980 9974 9971 9966 9960 9955 9950 9945 9942 9939 9937 9933 9928 9925 9924 9920 9918
10125 10120 10105 10099 10091 10075 10079 10086 10076 10061 10055 10046 10042 10038 10028 10019 10012 10005 10001 9998 9994 9990 9986 9982 9975 9967 9961 9954 9948 9947 9941 9937 9932 9927 9923 9919 9917 9913 9909 9906 9899 9893 9896 9891